TimeEST,TemperatureF,Dew PointF,Humidity,Sea Level PressureIn,VisibilityMPH,Wind Direction,Wind SpeedMPH,Gust SpeedMPH,PrecipitationIn,Events,Conditions,WindDirDegrees,DateUTC
12:53 AM,25.0,12.0,58,29.82,10.0,SSW,8.1,-,N/A,,Clear,200,2013-12-19 05:53:00
1:53 AM,25.0,14.0,63,29.81,10.0,SW,10.4,-,N/A,,Clear,220,2013-12-19 06:53:00
2:53 AM,27.0,16.0,63,29.82,10.0,SSW,9.2,-,N/A,,Clear,210,2013-12-19 07:53:00
3:53 AM,25.0,16.0,69,29.83,10.0,SSW,8.1,-,N/A,,Clear,200,2013-12-19 08:53:00
4:53 AM,26.1,17.1,69,29.83,10.0,SSW,6.9,-,N/A,,Clear,200,2013-12-19 09:53:00
5:53 AM,25.0,17.1,72,29.86,10.0,SSW,5.8,-,N/A,,Clear,210,2013-12-19 10:53:00
6:53 AM,26.1,19.0,75,29.86,10.0,SSW,5.8,-,N/A,,Clear,210,2013-12-19 11:53:00
7:53 AM,25.0,19.9,81,29.89,10.0,SW,5.8,-,N/A,,Clear,230,2013-12-19 12:53:00
8:53 AM,25.0,21.0,85,29.91,10.0,SW,6.9,-,N/A,,Clear,220,2013-12-19 13:53:00
9:53 AM,27.0,21.9,81,29.94,9.0,SW,8.1,-,N/A,,Clear,220,2013-12-19 14:53:00
10:53 AM,30.9,26.1,82,29.98,9.0,WSW,6.9,-,N/A,,Clear,250,2013-12-19 15:53:00
11:53 AM,33.1,27.0,78,29.99,9.0,WNW,5.8,-,N/A,,Clear,290,2013-12-19 16:53:00
12:53 PM,35.1,28.0,76,29.99,9.0,North,9.2,-,N/A,,Clear,350,2013-12-19 17:53:00
1:53 PM,34.0,26.1,73,29.98,10.0,North,8.1,-,N/A,,Clear,360,2013-12-19 18:53:00
2:53 PM,32.0,25.0,75,29.99,10.0,NE,9.2,-,N/A,,Clear,40,2013-12-19 19:53:00
3:53 PM,30.9,24.1,76,30.01,10.0,NE,9.2,-,N/A,,Clear,50,2013-12-19 20:53:00
4:53 PM,30.0,23.0,75,30.04,10.0,ENE,6.9,-,N/A,,Clear,60,2013-12-19 21:53:00
5:53 PM,28.0,21.9,78,30.04,10.0,East,3.5,-,N/A,,Clear,80,2013-12-19 22:53:00
6:53 PM,28.0,21.0,75,30.02,10.0,East,6.9,-,N/A,,Clear,80,2013-12-19 23:53:00
7:53 PM,27.0,21.0,78,30.02,10.0,NE,6.9,-,N/A,,Partly Cloudy,50,2013-12-20 00:53:00
8:10 PM,28.4,21.2,74,29.99,10.0,NE,6.9,-,N/A,,Mostly Cloudy,50,2013-12-20 01:10:00
8:53 PM,28.9,23.0,78,30.02,10.0,NE,6.9,-,N/A,,Overcast,40,2013-12-20 01:53:00
9:53 PM,30.0,25.0,82,30.01,4.0,NE,9.2,-,0.00,Rain,Light Freezing Rain,40,2013-12-20 02:53:00
10:06 PM,30.2,26.6,86,29.98,4.0,NE,9.2,-,0.00,Snow,Light Snow,50,2013-12-20 03:06:00
10:53 PM,28.9,26.1,89,29.97,4.0,ENE,10.4,-,0.01,Snow,Light Snow,60,2013-12-20 03:53:00
11:27 PM,30.2,26.6,86,29.94,4.0,ENE,10.4,-,0.01,Snow,Light Snow,70,2013-12-20 04:27:00
11:37 PM,30.2,26.6,86,29.94,2.5,ENE,11.5,-,0.02,Snow,Light Snow,60,2013-12-20 04:37:00
11:41 PM,30.2,26.6,86,29.94,3.0,ENE,11.5,-,0.02,Snow,Light Snow,60,2013-12-20 04:41:00
11:53 PM,30.0,27.0,88,29.95,5.0,ENE,11.5,-,0.02,,Overcast,60,2013-12-20 04:53:00